Preview of NWS' New Version of Forecast
This preview is not operational and should not be used for support decisions.

Regional Weather Roundup (RWR)

Issued by Gray - Portland, ME (GYX)

                            
205 
ASUS41 KGYX 190510
RWRGYX
WEATHER ROUNDUP FOR MAINE AND NEW HAMPSHIRE
NATIONAL WEATHER SERVICE GRAY ME
100 AM EDT THU APR 19 2018

MEZ002-005-006-010-012-015-018-020-021-024-026-027-029-190600-
MAINE
  
CITY           SKY/WX    TMP DP  RH WIND       PRES   REMARKS
PORTLAND       CLOUDY    44  30  57 VRB7      29.68S                  
SANFORD        FAIR      39  29  67 W8        29.71R                  
BAR HARBOR     CLOUDY    39  32  76 S7        29.65S                  
WISCASSET      CLOUDY    43  33  68 W3        29.68S                  
ROCKLAND       CLOUDY    43  33  68 SW5       29.66S                  
FRYEBURG       FAIR      35  30  82 SW5       29.67R                  
LEWISTONAUBURN CLOUDY    42  31  64 SW7       29.66S                  
AUGUSTA        CLOUDY    41  30  65 SW5       29.65S                  
WATERVILLE     MOCLDY    38  31  76 CALM      29.62S                  
BANGOR         MOCLDY    41  31  67 SW6       29.62F                  
GREENVILLE       N/A     35  31  85 VRB5      29.54R                  
MILLINOCKET    CLOUDY    38  30  73 CALM      29.58F                  
HOULTON        CLOUDY    37  32  82 S3        29.54S                  
PRESQUE ISLE   LGT RAIN  35  33  92 CALM      29.53S                  
FRENCHVILLE    MOCLDY    34  31  88 SW5       29.49R FOG              
CARIBOU        CLOUDY    35  32  88 W3        29.52R                  
$$

NHZ002-005-008-009-011-012-014-190600-
NEW HAMPSHIRE
  
CITY           SKY/WX    TMP DP  RH WIND       PRES   REMARKS
PORTSMOUTH     PTCLDY    40  27  60 SW9       29.71R                  
ROCHESTER      FAIR      39  29  67 CALM      29.71R                  
NASHUA         FAIR      38  29  70 W5        29.75R                  
MANCHESTER     FAIR      40  27  59 SE6       29.73R                  
CONCORD        FAIR      37  28  70 W5        29.72R                  
LACONIA        CLOUDY    39  28  64 SW6       29.70R                  
PLYMOUTH       CLOUDY    39  29  67 MISG      29.69S                  
BERLIN         LGT RAIN  38  30  73 SW5       29.63S                  
WHITEFIELD     CLOUDY    37  30  75 SW3       29.65S                  
JAFFREY        CLOUDY    39  28  64 W8        29.74R                  
KEENE          CLOUDY    40  27  59 W6        29.76R                  
LEBANON        CLOUDY    40  26  57 S8        29.71R                  
MT WASHINGTON  BLWGSNOW  18  18 100 W46         N/A  VSB 0   WCI  -5  
$$

VTZ005-007-008-190600-
VERMONT
  
CITY           SKY/WX    TMP DP  RH WIND       PRES   REMARKS
ST JOHNSBURY     N/A     38  30  73 MISG      29.65S                  
MONTPELIER     CLOUDY    36  29  75 SW5       29.70S                  
BURLINGTON     CLOUDY    41  28  60 W5        29.70R                  
$$

MAZ007-012-024-CTZ003-RIZ002-NYZ038-NYZ072-190600-
SOUTHERN NEW ENGLAND AND NY
  
CITY           SKY/WX    TMP DP  RH WIND       PRES   REMARKS
BOSTON         FAIR      43  29  57 W7        29.76S                  
WORCESTER      MOCLDY    35  27  72 W6        29.75R                  
NANTUCKET      FAIR      41  40  96 SW15      29.79S                  
PROVIDENCE     FAIR      41  32  70 SW3       29.79R                  
HARTFORD       FAIR      34  29  82 N3        29.78R                  
ALBANY         CLOUDY    39  28  64 NW5       29.78F                  
NEW YORK CITY  CLOUDY    48  33  56 NE8       29.76R                  
$$

ANZ081-ANZ082-ANZ150-NHZ014-MEZ023>029-190600-
COASTAL MARINE OBSERVATIONS
  
STATION/POSITION TIME  TEMP    WIND        PRES    WAVE
                       AIR SEA DIR/SP/G            HT/PER
                 (UTC) (F)     (DEG/KT/KT) (MB)    (FT/S)
MOUNT DESERT ROC 0500   41     230/ 12/ 13 1004.5F
MATINICUS ROCK   0400   43     270/ 14/ 15 1004.2F
ISLE OF SHOALS   0400   43     250/ 15/ 16 1006.0S
JEFFREYS LEDGE   0436      41                N/A     4/10
CASHES LEDGE BUO 0450   42 40              1005.0F   4/10
$$

.............KEY..............
   WCI - WIND CHILL
   TC  - TEMPERATURE IN CELSIUS
   VSB - VISIBILITY IN MILES
   HX  - HEAT INDEX
   FAIR- INDICATES FEW OR NO CLOUDS BELOW 12,000 FT, WITH NO 
         SIGNIFICANT WEATHER AND/OR OBSTRUCTIONS TO VISIBILITY.